Cloud_Cover
100 100 100 100 100 90 54 89 100 77 5 32 98 100 100 91 27 45 77 43 8 5 16 44 8 5 5 47 12 5 5 17 45 4 42 5 4 0 0 0 76 88 33 3 0
85 100 78 71 51 36 71 7 5 5 5 5 7 5 5 6 2 22 53 75 26 4 5 0 0 2 4 2 0 0 0 5 5 5 8 5 5 0 0 0 3 6 5 3 2
54 35 13 13 18 5 8 18 56 77 97 96 60 6 32 68 61 59 16 3 1 0 0 0 0 0 0 0 0 0 0 0 2 3 0 5 5 3 0 0 3 8 5 0 1
20 25 45 54 69 84 100 100 100 100 100 100 100 100 100 100 100 82 5 5 5 4 4 0 2 0 1 2 1 0 2 3 76 42 5 0 1 5 0 0 1 5 5 0 0
100 100 100 100 100 100 100 100 100 100 100 100 100 100 90 65 39 3 0 0 0 0 0 0 0 0 0 0 0 0 0 0 0 0 0 0 0 3 3 4 0 0 0 3 0
98 92 92 100 100 100 100 92 60 32 15 4 2 0 0 0 0 0 0 0 0 0 0 0 0 0 0 0 0 0 0 0 0 0 0 0 0 0 0 0 0 0 0 0 0
0 0 0 0 0 0 0 0 0 0 0 0 0 0 0 0 0 0 0 0 0 0 0 0 0 0 0 0 0 0 0 0 0 0 0 0 0 0 0 0 0 0 0 0 0
0 0 0 0 0 0 0 0 0 0 0 0 0 0 0 0 0 0 0 0 0 0 0 0 0 0 0 0 0 0 0 0 0 0 0 0 0 0 0 0 0 0 0 0 0
0 0 0 0 0 0 0 0 0 0 0 0 0 0 0 0 0 0 0 0 0 0 0 0 0 0 0 0 0 0 0 0 0 0 0 0 0 0 0 0 0 0 0 0 0
0 0 0 0 0 0 0 0 0 0 0 0 0 0 0 0 0 0 0 0 0 0 0 0 0 0 0 0 0 0 0 0 0 0 0 0 0 0 0 0 0 0 0 0 0
0 0 0 0 0 0 0 0 0 0 0 0 0 0 0 0 0 0 0 0 0 0 0 0 0 0 0 0 0 0 0 0 0 0 0 0 0 0 0 0 12 5 0 0 0
0 0 0 0 0 0 0 0 0 0 0 0 0 0 0 0 0 0 0 0 0 0 0 0 0 0 0 0 0 0 0 0 0 0 0 0 0 0 0 0 96 71 0 0 0
0 0 0 0 0 0 0 0 0 0 0 0 0 0 0 0 0 0 1 0 0 0 0 0 0 0 0 0 0 0 0 0 0 0 0 0 0 0 0 0 34 100 0 0 0
0 0 0 0 0 0 0 0 0 0 4 4 4 4 5 0 4 0 3 5 2 0 0 0 0 0 0 0 0 0 0 0 0 0 0 0 0 0 4 2 5 45 26 4 0
0 0 0 0 0 0 0 1 5 4 5 5 5 5 5 5 5 0 0 5 0 0 0 0 0 0 0 0 0 0 0 0 0 0 0 0 2 19 5 10 75 57 73 11 5
1 4 5 5 5 2 3 5 5 5 5 5 5 5 5 5 5 3 0 2 0 0 0 0 0 0 0 0 5 2 1 0 0 0 0 53 39 100 87 100 81 99 5 75 7
5 5 5 9 5 5 5 5 7 15 5 22 12 5 5 5 5 5 1 0 0 0 0 0 0 0 0 0 0 73 100 73 15 0 4 100 100 100 99 100 100 99 99 98 100
5 5 5 5 5 5 5 18 78 44 76 31 69 5 5 5 5 5 0 2 0 0 0 0 0 0 0 68 98 55 79 43 72 96 58 100 100 100 100 100 100 100 100 100 100
5 5 5 5 5 5 6 5 5 39 63 81 13 10 19 11 5 5 2 0 0 0 5 3 0 0 39 47 100 85 74 90 100 55 100 100 100 100 100 100 100 100 100 100 100
5 5 5 8 5 5 49 39 11 10 46 70 57 45 62 64 18 5 5 0 0 0 2 0 28 0 17 74 100 100 51 100 98 92 100 100 100 100 100 100 100 100 100 100 100
28 57 10 6 9 19 70 36 44 11 27 26 23 62 85 61 9 31 8 2 0 0 0 2 22 5 10 75 80 100 100 100 100 100 100 100 100 100 100 100 100 100 100 100 100
55 59 5 5 17 14 31 62 85 15 5 54 80 100 100 99 89 68 5 0 0 0 0 0 4 20 0 72 90 100 100 100 100 100 100 100 100 100 100 100 100 100 100 100 100
16 8 7 5 5 8 5 6 28 17 5 68 100 100 100 85 100 69 5 0 0 0 2 13 2 5 0 17 95 100 47 99 100 100 100 98 99 100 100 100 100 100 100 100 100
28 45 52 13 48 97 17 5 5 5 5 86 93 100 91 100 97 14 5 0 0 0 1 0 2 85 100 99 100 92 100 95 78 98 100 100 94 100 100 100 100 100 100 100 100
13 57 83 7 64 65 48 6 13 5 29 72 58 91 91 100 72 5 5 2 0 0 0 0 0 55 8 86 100 96 20 12 11 32 58 100 100 100 100 100 100 100 100 100 100
48 59 75 46 52 34 37 46 28 5 75 19 81 100 100 61 5 5 5 2 0 0 0 0 0 90 66 85 100 100 100 91 16 6 5 5 92 100 100 100 100 100 100 100 100
44 72 68 62 7 8 45 59 29 30 23 46 100 100 100 7 5 5 5 5 0 0 0 0 0 8 100 100 57 84 74 100 100 7 5 55 10 100 99 100 100 100 100 100 100